When you browse on this site, cookies collect data to enhance your experience and personalize the content and advertising you see.
Visit our Privacy Policy to learn more. By continuing to use the site, you agree to this use of cookies and data.
  • In United Kingdom
  • List of Countries
  • For 7 days
  • Water Temperature
  • Weather Map
  • Weather Widgets
  • user-avatar
    Login

    Hourly Weather Meinerzhagen

    Today, 12 December, Thursday

    Time Temperature Precipitation Wind Pressure Humidity
    00:00 -1°C° 0 mm 2 mps 713 mmHg 95%
    01:00 -1°C° 0 mm 2 mps 714 mmHg 96%
    02:00 +1°C° 0 mm 2 mps 713 mmHg 95%
    03:00 +1°C° 0 mm 2 mps 713 mmHg 95%
    04:00 +1°C° 0 mm 2 mps 712 mmHg 94%
    05:00 +1°C° 0 mm 2 mps 712 mmHg 94%
    06:00 +1°C° 0 mm 2 mps 712 mmHg 95%
    07:00 +1°C° 0 mm 2 mps 712 mmHg 95%
    08:00 +2°C° 0.1 mm 2 mps 712 mmHg 95%
    09:00 +2°C° 0.1 mm 2 mps 712 mmHg 95%
    10:00 +2°C° 0.1 mm 2 mps 712 mmHg 94%
    11:00 +1°C° 0 mm 3 mps 712 mmHg 90%
    12:00 +2°C° 0 mm 3 mps 712 mmHg 86%
    13:00 +1°C° 0 mm 4 mps 712 mmHg 81%
    14:00 0°C° 0 mm 4 mps 711 mmHg 82%
    15:00 0°C° 0 mm 4 mps 710 mmHg 83%
    16:00 -1°C° 0 mm 4 mps 709 mmHg 84%
    17:00 -1°C° 0 mm 4 mps 708 mmHg 84%
    18:00 -2°C° 0 mm 5 mps 708 mmHg 85%
    19:00 -2°C° 0 mm 5 mps 707 mmHg 85%
    20:00 -2°C° 0 mm 5 mps 706 mmHg 84%
    21:00 -3°C° 0 mm 6 mps 704 mmHg 83%
    22:00 -3°C° 0 mm 7 mps 703 mmHg 83%
    23:00 -3°C° 0 mm 7 mps 702 mmHg 81%

    Tomorrow, 13 December, Friday

    Time Temperature Precipitation Wind Pressure Humidity
    00:00 -3°C° 0 mm 7 mps 701 mmHg 79%
    01:00 -2°C° 0 mm 8 mps 699 mmHg 77%
    02:00 -2°C° 0.2 mm 7 mps 698 mmHg 82%
    03:00 -2°C° 0.2 mm 7 mps 697 mmHg 87%
    04:00 -2°C° 0.2 mm 7 mps 695 mmHg 92%
    05:00 -2°C° 0.3 mm 7 mps 695 mmHg 92%
    06:00 -1°C° 0.3 mm 6 mps 694 mmHg 92%
    07:00 -1°C° 0.3 mm 6 mps 693 mmHg 93%
    08:00 +1°C° 0.4 mm 5 mps 693 mmHg 93%
    09:00 +1°C° 0.4 mm 4 mps 693 mmHg 93%
    10:00 +2°C° 0.4 mm 3 mps 693 mmHg 93%
    11:00 +1°C° 0.3 mm 4 mps 693 mmHg 93%
    12:00 +1°C° 0.3 mm 4 mps 694 mmHg 93%
    13:00 +1°C° 0.3 mm 5 mps 694 mmHg 93%
    14:00 0°C° 1.2 mm 5 mps 695 mmHg 94%
    15:00 0°C° 1.2 mm 5 mps 695 mmHg 94%
    16:00 -1°C° 1.2 mm 6 mps 695 mmHg 95%
    17:00 -1°C° 1.8 mm 6 mps 696 mmHg 94%
    18:00 +1°C° 1.8 mm 6 mps 697 mmHg 93%
    19:00 +1°C° 1.8 mm 6 mps 698 mmHg 91%
    20:00 +1°C° 0.5 mm 6 mps 699 mmHg 91%
    21:00 +1°C° 0.5 mm 6 mps 700 mmHg 91%
    22:00 +1°C° 0.5 mm 6 mps 701 mmHg 91%
    23:00 +1°C° 0.2 mm 6 mps 702 mmHg 90%

    Day after tomorrow, 14 December, Saturday

    Time Temperature Precipitation Wind Pressure Humidity
    00:00 -1°C° 0.2 mm 6 mps 702 mmHg 89%
    01:00 -1°C° 0.2 mm 6 mps 703 mmHg 88%
    02:00 0°C° 0 mm 5 mps 703 mmHg 88%
    03:00 0°C° 0 mm 5 mps 703 mmHg 88%
    04:00 0°C° 0 mm 5 mps 704 mmHg 88%
    05:00 0°C° 0.6 mm 5 mps 703 mmHg 90%
    06:00 0°C° 0.6 mm 5 mps 703 mmHg 92%
    07:00 0°C° 0.6 mm 5 mps 702 mmHg 94%
    08:00 +1°C° 0.5 mm 6 mps 702 mmHg 91%
    09:00 +2°C° 0.5 mm 7 mps 703 mmHg 87%
    10:00 +3°C° 0.5 mm 7 mps 703 mmHg 84%
    11:00 +3°C° 0.1 mm 7 mps 704 mmHg 80%
    12:00 +1°C° 0.1 mm 8 mps 705 mmHg 76%
    13:00 +1°C° 0.1 mm 8 mps 706 mmHg 72%
    14:00 +2°C° 0 mm 7 mps 707 mmHg 72%
    15:00 +1°C° 0 mm 5 mps 707 mmHg 73%
    16:00 +1°C° 0 mm 4 mps 708 mmHg 73%
    17:00 +1°C° 0.6 mm 4 mps 709 mmHg 78%
    18:00 +2°C° 0.6 mm 5 mps 709 mmHg 83%
    19:00 +2°C° 0.6 mm 5 mps 709 mmHg 88%
    20:00 +2°C° 0.1 mm 5 mps 710 mmHg 89%
    21:00 +1°C° 0.1 mm 4 mps 710 mmHg 89%
    22:00 +1°C° 0.1 mm 3 mps 711 mmHg 90%
    23:00 +1°C° 0 mm 3 mps 710 mmHg 90%

    15 December, Sunday

    Time Temperature Precipitation Wind Pressure Humidity
    00:00 +1°C° 0 mm 3 mps 710 mmHg 91%
    01:00 +1°C° 0 mm 3 mps 710 mmHg 92%
    02:00 +2°C° 0.2 mm 3 mps 709 mmHg 91%
    03:00 +3°C° 0.2 mm 4 mps 708 mmHg 90%
    04:00 +3°C° 0.2 mm 5 mps 708 mmHg 89%
    05:00 +3°C° 0.4 mm 5 mps 708 mmHg 88%
    06:00 +3°C° 0.4 mm 6 mps 708 mmHg 86%
    07:00 +3°C° 0.4 mm 6 mps 708 mmHg 85%
    08:00 +3°C° 0.1 mm 6 mps 710 mmHg 81%
    09:00 +2°C° 0.1 mm 6 mps 711 mmHg 78%
    10:00 +1°C° 0.1 mm 6 mps 712 mmHg 74%
    11:00 +2°C° 0 mm 5 mps 713 mmHg 73%
    12:00 +2°C° 0 mm 5 mps 714 mmHg 71%
    13:00 +2°C° 0 mm 5 mps 715 mmHg 70%
    14:00 +3°C° 0 mm 4 mps 715 mmHg 73%
    15:00 +1°C° 0 mm 4 mps 715 mmHg 77%
    16:00 +2°C° 0 mm 3 mps 716 mmHg 80%
    17:00 +1°C° 0 mm 3 mps 716 mmHg 81%
    18:00 +1°C° 0 mm 3 mps 716 mmHg 82%
    19:00 0°C° 0 mm 3 mps 716 mmHg 84%
    20:00 0°C° 0 mm 3 mps 717 mmHg 83%
    21:00 0°C° 0 mm 3 mps 717 mmHg 82%
    22:00 0°C° 0 mm 3 mps 717 mmHg 82%
    23:00 0°C° 0 mm 3 mps 717 mmHg 83%

    16 December, Monday

    Time Temperature Precipitation Wind Pressure Humidity
    00:00 0°C° 0 mm 3 mps 717 mmHg 85%
    01:00 +1°C° 0 mm 3 mps 717 mmHg 87%
    02:00 0°C° 0 mm 4 mps 717 mmHg 88%
    03:00 0°C° 0 mm 4 mps 717 mmHg 89%
    04:00 +1°C° 0 mm 4 mps 717 mmHg 90%
    05:00 +2°C° 0 mm 3 mps 717 mmHg 91%
    06:00 +2°C° 0 mm 3 mps 717 mmHg 91%
    07:00 +2°C° 0 mm 3 mps 717 mmHg 91%
    08:00 +2°C° 0 mm 3 mps 717 mmHg 91%
    09:00 +3°C° 0 mm 3 mps 717 mmHg 90%
    10:00 +3°C° 0 mm 3 mps 718 mmHg 90%
    11:00 +3°C° 0.1 mm 3 mps 718 mmHg 89%
    12:00 +4°C° 0.1 mm 3 mps 717 mmHg 88%
    13:00 +4°C° 0.1 mm 3 mps 717 mmHg 88%
    14:00 +5°C° 0.1 mm 2 mps 717 mmHg 89%
    15:00 +5°C° 0.1 mm 2 mps 717 mmHg 90%
    16:00 +5°C° 0.1 mm 2 mps 716 mmHg 92%
    17:00 +5°C° 0.6 mm 1 mps 716 mmHg 93%
    18:00 +5°C° 0.6 mm 1 mps 716 mmHg 94%
    19:00 +5°C° 0.6 mm 1 mps 716 mmHg 94%
    20:00 +5°C° 1.1 mm 1 mps 716 mmHg 95%
    21:00 +5°C° 1.1 mm 1 mps 716 mmHg 96%
    22:00 +5°C° 1.1 mm 1 mps 716 mmHg 96%
    23:00 +6°C° 0.4 mm 1 mps 715 mmHg 95%

    17 December, Tuesday

    Time Temperature Precipitation Wind Pressure Humidity
    00:00 +5°C° 0.4 mm 2 mps 715 mmHg 94%
    01:00 +5°C° 0.4 mm 2 mps 715 mmHg 92%
    02:00 +5°C° 0 mm 2 mps 715 mmHg 91%
    03:00 +5°C° 0 mm 2 mps 715 mmHg 90%
    04:00 +5°C° 0 mm 2 mps 715 mmHg 89%
    05:00 +6°C° 0 mm 2 mps 715 mmHg 88%
    06:00 +5°C° 0 mm 3 mps 715 mmHg 88%
    07:00 +5°C° 0 mm 3 mps 715 mmHg 87%
    08:00 +5°C° 0.2 mm 3 mps 715 mmHg 86%
    09:00 +7°C° 0.2 mm 3 mps 715 mmHg 84%
    10:00 +7°C° 0.2 mm 3 mps 716 mmHg 83%
    11:00 +7°C° 0.4 mm 3 mps 716 mmHg 85%
    12:00 +7°C° 0.4 mm 3 mps 716 mmHg 88%
    13:00 +7°C° 0.4 mm 3 mps 716 mmHg 90%
    14:00 +7°C° 1.2 mm 3 mps 716 mmHg 92%
    15:00 +6°C° 1.2 mm 4 mps 717 mmHg 93%
    16:00 +6°C° 1.2 mm 4 mps 717 mmHg 95%
    17:00 +5°C° 0.5 mm 3 mps 718 mmHg 95%
    18:00 +4°C° 0.5 mm 3 mps 718 mmHg 94%
    19:00 +4°C° 0.5 mm 3 mps 719 mmHg 94%
    20:00 +4°C° 0 mm 2 mps 720 mmHg 95%
    21:00 +4°C° 0 mm 2 mps 721 mmHg 95%
    22:00 +4°C° 0 mm 1 mps 722 mmHg 96%
    23:00 +4°C° 0 mm 1 mps 723 mmHg 96%
    Show more